When you browse on this site, cookies collect data to enhance your experience and personalize the content and advertising you see.
Visit our Privacy Policy to learn more. By continuing to use the site, you agree to this use of cookies and data.
  • In Hungary
  • List of Countries
  • For 7 days
  • Water Temperature
  • Satellite Maps
  • Weather Map
  • News
  • Weather Widgets
  • user-avatar
    Login

    Hourly Weather Chester

    Today, 16 January, Wednesday

    Time Temperature Precipitation Wind Pressure Humidity
    00:00 +9°C° 0 mm 3 mps 754 mmHg 83%
    01:00 +8°C° 0 mm 4 mps 754 mmHg 83%
    02:00 +8°C° 0 mm 4 mps 753 mmHg 83%
    03:00 +8°C° 0 mm 4 mps 752 mmHg 84%
    04:00 +8°C° 0 mm 4 mps 751 mmHg 84%
    05:00 +7°C° 0 mm 4 mps 751 mmHg 85%
    06:00 +7°C° 0 mm 4 mps 750 mmHg 86%
    07:00 +7°C° 0.5 mm 4 mps 750 mmHg 87%
    08:00 +7°C° 0.5 mm 4 mps 750 mmHg 87%
    09:00 +7°C° 0.5 mm 4 mps 750 mmHg 88%
    10:00 +7°C° 0.5 mm 4 mps 750 mmHg 85%
    11:00 +7°C° 0.5 mm 4 mps 750 mmHg 82%
    12:00 +7°C° 0 mm 3 mps 750 mmHg 76%
    13:00 +6°C° 0 mm 4 mps 750 mmHg 75%
    14:00 +6°C° 0 mm 4 mps 749 mmHg 74%
    15:00 +6°C° 0 mm 4 mps 749 mmHg 73%
    16:00 +5°C° 0 mm 3 mps 749 mmHg 76%
    17:00 +4°C° 0 mm 3 mps 749 mmHg 79%
    18:00 +3°C° 0 mm 3 mps 750 mmHg 82%
    19:00 +3°C° 0.1 mm 3 mps 750 mmHg 82%
    20:00 +3°C° 0.1 mm 3 mps 750 mmHg 83%
    21:00 +3°C° 0.1 mm 3 mps 750 mmHg 84%
    22:00 +3°C° 0 mm 3 mps 750 mmHg 83%
    23:00 +3°C° 0 mm 3 mps 750 mmHg 83%

    Tomorrow, 17 January, Thursday

    Time Temperature Precipitation Wind Pressure Humidity
    00:00 +3°C° 0 mm 3 mps 751 mmHg 82%
    01:00 +3°C° 0.2 mm 4 mps 751 mmHg 81%
    02:00 +3°C° 0.2 mm 4 mps 752 mmHg 81%
    03:00 +2°C° 0.2 mm 5 mps 753 mmHg 80%
    04:00 +1°C° 0.1 mm 5 mps 754 mmHg 75%
    05:00 -1°C° 0.1 mm 6 mps 755 mmHg 70%
    06:00 -1°C° 0.1 mm 6 mps 756 mmHg 64%
    07:00 -1°C° 0 mm 6 mps 757 mmHg 64%
    08:00 0°C° 0 mm 5 mps 758 mmHg 63%
    09:00 0°C° 0 mm 5 mps 759 mmHg 62%
    10:00 +1°C° 0 mm 5 mps 759 mmHg 60%
    11:00 +1°C° 0 mm 6 mps 760 mmHg 58%
    12:00 +2°C° 0 mm 6 mps 760 mmHg 56%
    13:00 +2°C° 0 mm 5 mps 761 mmHg 57%
    14:00 +3°C° 0 mm 4 mps 761 mmHg 58%
    15:00 +3°C° 0 mm 3 mps 761 mmHg 59%
    16:00 +2°C° 0 mm 3 mps 761 mmHg 60%
    17:00 +3°C° 0 mm 2 mps 762 mmHg 61%
    18:00 +3°C° 0 mm 1 mps 762 mmHg 63%
    19:00 +3°C° 0 mm 1 mps 762 mmHg 63%
    20:00 +3°C° 0 mm 1 mps 763 mmHg 64%
    21:00 +3°C° 0 mm 1 mps 763 mmHg 65%
    22:00 +3°C° 0 mm 1 mps 763 mmHg 66%
    23:00 +1°C° 0 mm 2 mps 763 mmHg 67%

    Day after tomorrow, 18 January, Friday

    Time Temperature Precipitation Wind Pressure Humidity
    00:00 +1°C° 0 mm 2 mps 763 mmHg 69%
    01:00 +1°C° 0 mm 2 mps 762 mmHg 69%
    02:00 -1°C° 0 mm 3 mps 762 mmHg 70%
    03:00 -1°C° 0 mm 3 mps 762 mmHg 70%
    04:00 -1°C° 0 mm 3 mps 761 mmHg 70%
    05:00 -2°C° 0 mm 4 mps 761 mmHg 70%
    06:00 -2°C° 0 mm 4 mps 760 mmHg 70%
    07:00 -1°C° 0 mm 5 mps 760 mmHg 69%
    08:00 -1°C° 0 mm 5 mps 760 mmHg 67%
    09:00 -2°C° 0 mm 6 mps 759 mmHg 66%
    10:00 -1°C° 0.1 mm 6 mps 759 mmHg 67%
    11:00 +1°C° 0.1 mm 6 mps 758 mmHg 68%
    12:00 0°C° 0.1 mm 7 mps 758 mmHg 69%
    13:00 +2°C° 0.4 mm 7 mps 757 mmHg 73%
    14:00 +2°C° 0.4 mm 7 mps 757 mmHg 76%
    15:00 +2°C° 0.4 mm 7 mps 756 mmHg 79%
    16:00 +2°C° 0.1 mm 7 mps 756 mmHg 81%
    17:00 +2°C° 0.1 mm 7 mps 755 mmHg 83%
    18:00 0°C° 0.1 mm 7 mps 755 mmHg 85%
    19:00 0°C° 0 mm 7 mps 755 mmHg 86%
    20:00 +1°C° 0 mm 6 mps 755 mmHg 86%
    21:00 +1°C° 0 mm 6 mps 755 mmHg 87%
    22:00 +1°C° 0.1 mm 6 mps 754 mmHg 88%
    23:00 +1°C° 0.1 mm 5 mps 754 mmHg 89%

    19 January, Saturday

    Time Temperature Precipitation Wind Pressure Humidity
    00:00 +1°C° 0.1 mm 5 mps 754 mmHg 89%
    01:00 +1°C° 0.1 mm 5 mps 754 mmHg 91%
    02:00 +1°C° 0.1 mm 4 mps 754 mmHg 92%
    03:00 +1°C° 0.1 mm 4 mps 753 mmHg 93%
    04:00 +1°C° 0 mm 4 mps 753 mmHg 93%
    05:00 +1°C° 0 mm 4 mps 753 mmHg 94%
    06:00 +2°C° 0 mm 3 mps 753 mmHg 95%
    07:00 +2°C° 0 mm 3 mps 753 mmHg 96%
    08:00 +2°C° 0 mm 3 mps 753 mmHg 96%
    09:00 +2°C° 0 mm 3 mps 753 mmHg 96%
    10:00 +3°C° 0 mm 3 mps 753 mmHg 94%
    11:00 +4°C° 0 mm 3 mps 753 mmHg 92%
    12:00 +4°C° 0 mm 3 mps 753 mmHg 90%
    13:00 +4°C° 0 mm 3 mps 753 mmHg 90%
    14:00 +5°C° 0 mm 2 mps 753 mmHg 90%
    15:00 +5°C° 0 mm 2 mps 753 mmHg 90%
    16:00 +5°C° 0 mm 2 mps 754 mmHg 92%
    17:00 +4°C° 0 mm 2 mps 754 mmHg 93%
    18:00 +4°C° 0 mm 2 mps 754 mmHg 94%
    19:00 +4°C° 0.2 mm 2 mps 755 mmHg 94%
    20:00 +4°C° 0.2 mm 2 mps 755 mmHg 94%
    21:00 +4°C° 0.2 mm 2 mps 756 mmHg 94%
    22:00 +4°C° 0.2 mm 2 mps 756 mmHg 94%
    23:00 +4°C° 0.2 mm 2 mps 756 mmHg 95%

    20 January, Sunday

    Time Temperature Precipitation Wind Pressure Humidity
    00:00 +4°C° 0.2 mm 2 mps 757 mmHg 95%
    01:00 +4°C° 0 mm 2 mps 757 mmHg 95%
    02:00 +4°C° 0 mm 2 mps 757 mmHg 95%
    03:00 +4°C° 0 mm 2 mps 758 mmHg 95%
    04:00 +3°C° 0 mm 2 mps 758 mmHg 95%
    05:00 +3°C° 0 mm 2 mps 758 mmHg 95%
    06:00 +3°C° 0 mm 2 mps 759 mmHg 95%
    07:00 +4°C° 0.1 mm 1 mps 760 mmHg 94%
    08:00 +4°C° 0.1 mm 1 mps 761 mmHg 94%
    09:00 +4°C° 0.1 mm 1 mps 761 mmHg 94%
    10:00 +5°C° 0.1 mm 1 mps 762 mmHg 92%
    11:00 +5°C° 0.1 mm 1 mps 763 mmHg 91%
    12:00 +6°C° 0.1 mm 1 mps 763 mmHg 90%
    13:00 +6°C° 0.1 mm 1 mps 764 mmHg 89%
    14:00 +5°C° 0.1 mm 2 mps 764 mmHg 89%
    15:00 +5°C° 0.1 mm 3 mps 765 mmHg 89%
    16:00 +4°C° 0.1 mm 3 mps 765 mmHg 87%
    17:00 +4°C° 0.1 mm 4 mps 766 mmHg 85%
    18:00 +3°C° 0.1 mm 5 mps 767 mmHg 84%
    19:00 +2°C° 0 mm 5 mps 768 mmHg 81%
    20:00 +3°C° 0 mm 4 mps 768 mmHg 78%
    21:00 +3°C° 0 mm 4 mps 769 mmHg 76%
    22:00 +1°C° 0 mm 4 mps 769 mmHg 76%
    23:00 +2°C° 0 mm 3 mps 770 mmHg 76%

    21 January, Monday

    Time Temperature Precipitation Wind Pressure Humidity
    00:00 +1°C° 0 mm 3 mps 770 mmHg 76%
    01:00 +2°C° 0 mm 2 mps 770 mmHg 77%
    02:00 +2°C° 0 mm 2 mps 770 mmHg 79%
    03:00 +2°C° 0 mm 2 mps 770 mmHg 80%
    04:00 +2°C° 0 mm 2 mps 770 mmHg 81%
    05:00 +2°C° 0 mm 1 mps 770 mmHg 82%
    06:00 +2°C° 0 mm 1 mps 770 mmHg 83%
    07:00 +2°C° 0 mm 1 mps 770 mmHg 83%
    08:00 +3°C° 0 mm 1 mps 770 mmHg 84%
    09:00 +3°C° 0 mm 1 mps 770 mmHg 84%
    10:00 +3°C° 0 mm 2 mps 770 mmHg 82%
    11:00 +4°C° 0 mm 2 mps 769 mmHg 80%
    12:00 +4°C° 0 mm 3 mps 769 mmHg 78%
    13:00 +4°C° 0 mm 3 mps 767 mmHg 78%
    14:00 +4°C° 0 mm 3 mps 766 mmHg 78%
    15:00 +4°C° 0 mm 3 mps 765 mmHg 78%
    16:00 +4°C° 0 mm 4 mps 764 mmHg 78%
    17:00 +2°C° 0 mm 5 mps 763 mmHg 79%
    18:00 +2°C° 0 mm 6 mps 761 mmHg 80%
    19:00 +2°C° 0.3 mm 6 mps 760 mmHg 80%
    20:00 +2°C° 0.3 mm 7 mps 758 mmHg 81%
    21:00 +2°C° 0.3 mm 8 mps 757 mmHg 81%
    22:00 +3°C° 1.3 mm 7 mps 755 mmHg 82%
    23:00 +3°C° 1.3 mm 6 mps 754 mmHg 83%
    Show more